Weather History for KPOE - December, 2012

Change the Weather History Date:

Monday, December 31, 2012

  Actual Average Record
Temperature  
Mean Temperature 50 °F -  
Max Temperature 61 °F 57 °F 73 °F (2005)
Min Temperature 41 °F 37 °F 26 °F (2000)
Degree Days  
Heating Degree Days 14    
Moisture  
Dew Point 45 °F    
Average Humidity 77    
Maximum Humidity 97    
Minimum Humidity 55    
Precipitation  
Precipitation 0.08 in - - ()
Sea Level Pressure  
Sea Level Pressure 30.12 in    
Wind  
Wind Speed 8 mph (SE)    
Max Wind Speed 16 mph    
Max Gust Speed 23 mph    
Visibility 9 miles    
Events Rain    
Averages and records for this station are not official NWS values.
T = Trace of Precipitation, MM = Missing Value Source: NWS Daily Summary

Daily Weather History Graph

Daily Weather History Graph

Search for Another Location

Airport or City:

Trip Planner

Search our weather history database for the weather conditions in past years. The results will help you decide how hot, cold, wet, or windy it might be!

Date:

Astronomy

Dec. 31, 2012 Rise Set
Actual Time 7:10 AM CST 5:21 PM CST
Civil Twilight 6:44 AM CST 5:47 PM CST
Nautical Twilight 6:14 AM CST 6:18 PM CST
Astronomical Twilight 5:44 AM CST 6:47 PM CST
Moon 8:38 PM CST (12/31) 9:05 AM CST (12/31)
Length of Visible Light 11h 03m
Length of Day
10h 10m
Waning Gibbous, 90% of the Moon is Illuminated
Dec 31
Waning Gibbous
Jan 4
Last Quarter
Jan 11
New
Jan 18
First Quarter
Jan 26
Full

Hourly Weather History & Observations

Time (CST) Temp. Windchill Dew Point Humidity Pressure Visibility Wind Dir Wind Speed Gust Speed Precip Events Conditions
12:55 AM 41.0 °F 39.0 °F 30.9 °F 67% 30.30 in 10.0 mi SSE 3.5 mph - N/A   Overcast
1:55 AM 42.1 °F 40.2 °F 30.0 °F 62% 30.31 in 10.0 mi ESE 3.5 mph - N/A   Overcast
2:55 AM 44.1 °F 40.1 °F 28.9 °F 55% 30.28 in 10.0 mi East 6.9 mph - N/A   Overcast
3:55 AM 44.1 °F 40.1 °F 30.0 °F 58% 30.26 in 10.0 mi SE 6.9 mph - N/A   Overcast
4:55 AM 43.0 °F 37.7 °F 30.0 °F 60% 30.24 in 10.0 mi ESE 9.2 mph - N/A   Partly Cloudy
5:55 AM 44.1 °F 39.0 °F 34.0 °F 68% 30.22 in 10.0 mi ESE 9.2 mph - N/A   Mostly Cloudy
6:28 AM 44.6 °F 40.2 °F 33.8 °F 66% 30.20 in 10.0 mi ESE 8.1 mph - N/A   Mostly Cloudy
6:37 AM 44.6 °F 40.7 °F 33.8 °F 66% 30.21 in 10.0 mi ESE 6.9 mph - N/A   Mostly Cloudy
6:55 AM 44.1 °F 40.8 °F 33.1 °F 65% 30.23 in 10.0 mi ESE 5.8 mph - N/A   Overcast
7:36 AM 44.6 °F 40.2 °F 33.8 °F 66% 30.20 in 10.0 mi SE 8.1 mph - N/A   Overcast
7:55 AM 45.0 °F 41.8 °F 35.1 °F 68% 30.22 in 10.0 mi East 5.8 mph - N/A   Overcast
8:41 AM 46.4 °F 42.4 °F 37.4 °F 71% 30.20 in 10.0 mi ESE 8.1 mph - N/A   Overcast
8:52 AM 46.4 °F 41.9 °F 37.4 °F 71% 30.19 in 10.0 mi ESE 9.2 mph - N/A   Overcast
8:55 AM 48.0 °F - 37.9 °F 68% 30.21 in 10.0 mi ESE 10.4 mph - N/A   Overcast
9:55 AM 48.9 °F - 39.9 °F 71% 30.20 in 10.0 mi ESE 11.5 mph - N/A   Overcast
10:55 AM 51.1 °F - 43.0 °F 74% 30.17 in 10.0 mi SE 11.5 mph - N/A   Overcast
11:55 AM 52.0 °F - 45.0 °F 77% 30.14 in 10.0 mi SE 8.1 mph - N/A   Overcast
12:55 PM 55.0 °F - 46.9 °F 74% 30.11 in 10.0 mi SE 10.4 mph - N/A   Overcast
1:55 PM 57.0 °F - 48.9 °F 74% 30.08 in 10.0 mi SSE 10.4 mph - N/A   Overcast
2:55 PM 57.0 °F - 50.0 °F 77% 30.07 in 10.0 mi SE 10.4 mph - 0.00 in   Overcast
3:55 PM 57.0 °F - 52.0 °F 83% 30.06 in 10.0 mi SSE 10.4 mph - N/A   Overcast
4:39 PM 57.2 °F - 53.6 °F 88% 30.04 in 4.0 mi SSE 16.1 mph 23.0 mph 0.00 in Rain Light Rain
4:55 PM 57.0 °F - 54.0 °F 89% 30.04 in 6.0 mi SE 13.8 mph - 0.00 in   Overcast
5:27 PM 57.2 °F - 53.6 °F 88% 30.02 in 8.0 mi SE 13.8 mph - N/A   Overcast
5:55 PM 57.0 °F - 54.0 °F 89% 30.03 in 10.0 mi SE 11.5 mph - N/A   Overcast
6:55 PM 57.9 °F - 54.0 °F 87% 30.02 in 10.0 mi SE 11.5 mph - N/A   Overcast
7:55 PM 57.9 °F - 54.0 °F 87% 30.01 in 10.0 mi SSE 10.4 mph - N/A   Overcast
8:55 PM 57.9 °F - 55.0 °F 90% 30.01 in 8.0 mi SSE 10.4 mph - 0.00 in Rain Light Rain
9:18 PM 57.2 °F - 55.4 °F 94% 29.98 in 10.0 mi SSE 10.4 mph - 0.01 in   Overcast
9:55 PM 57.9 °F - 55.9 °F 93% 29.99 in 10.0 mi SSE 10.4 mph - 0.02 in Rain Light Rain
10:35 PM 59.0 °F - 57.2 °F 94% 29.97 in 10.0 mi SSE 9.2 mph - 0.00 in   Overcast
10:55 PM 60.1 °F - 57.9 °F 93% 29.98 in 10.0 mi SSE 11.5 mph - 0.00 in   Overcast
11:02 PM 60.8 °F - 57.2 °F 88% 29.97 in 10.0 mi SSE 10.4 mph - N/A   Overcast
11:55 PM 61.0 °F - 60.1 °F 97% 29.96 in 4.0 mi SSE 11.5 mph - 0.06 in Rain Heavy Rain